TimeMST,TemperatureF,Dew PointF,Humidity,Sea Level PressureIn,VisibilityMPH,Wind Direction,Wind SpeedMPH,Gust SpeedMPH,PrecipitationIn,Events,Conditions,WindDirDegrees,DateUTC
12:48 AM,14.0,9.0,80,30.29,-9999.0,Calm,Calm,-,N/A,,Unknown,0,2013-01-23 07:48:00
1:48 AM,10.9,7.0,84,30.30,-9999.0,NNE,3.5,-,N/A,,Unknown,20,2013-01-23 08:48:00
2:48 AM,10.0,6.1,84,30.32,-9999.0,NE,5.8,-,N/A,,Unknown,40,2013-01-23 09:48:00
3:48 AM,10.0,6.1,84,30.33,-9999.0,NNE,5.8,-,N/A,,Unknown,20,2013-01-23 10:48:00
4:48 AM,10.0,6.1,84,30.35,-9999.0,NE,5.8,-,N/A,,Unknown,40,2013-01-23 11:48:00
5:48 AM,9.0,5.0,84,30.39,-9999.0,ENE,5.8,-,N/A,,Unknown,70,2013-01-23 12:48:00
6:48 AM,8.1,3.0,80,30.43,-9999.0,East,6.9,-,N/A,,Unknown,90,2013-01-23 13:48:00
7:48 AM,8.1,3.0,80,30.45,-9999.0,East,9.2,-,N/A,,Unknown,100,2013-01-23 14:48:00
8:48 AM,8.1,3.0,80,30.43,-9999.0,East,8.1,-,N/A,,Unknown,90,2013-01-23 15:48:00
9:48 AM,9.0,3.0,77,30.44,-9999.0,East,9.2,-,N/A,,Unknown,90,2013-01-23 16:48:00
10:48 AM,10.0,3.9,76,30.47,-9999.0,East,6.9,-,N/A,,Unknown,90,2013-01-23 17:48:00
11:48 AM,10.9,5.0,77,30.44,-9999.0,ESE,8.1,-,N/A,,Unknown,110,2013-01-23 18:48:00
12:48 PM,12.0,5.0,73,30.41,-9999.0,ESE,11.5,-,N/A,,Unknown,110,2013-01-23 19:48:00
1:48 PM,12.9,6.1,74,30.41,-9999.0,East,11.5,-,N/A,,Unknown,100,2013-01-23 20:48:00
2:48 PM,12.9,5.0,71,30.38,-9999.0,ESE,15.0,-,N/A,,Unknown,110,2013-01-23 21:48:00
3:48 PM,12.9,6.1,74,30.36,-9999.0,ESE,12.7,-,N/A,,Unknown,110,2013-01-23 22:48:00
4:48 PM,12.0,6.1,77,30.32,-9999.0,ESE,15.0,-,N/A,,Unknown,120,2013-01-23 23:48:00
5:48 PM,12.0,6.1,77,30.32,-9999.0,ESE,11.5,-,N/A,,Unknown,110,2013-01-24 00:48:00
6:48 PM,10.9,6.1,81,30.29,-9999.0,ESE,9.2,-,N/A,,Unknown,120,2013-01-24 01:48:00
7:48 PM,12.0,6.1,77,30.26,-9999.0,ESE,10.4,-,N/A,,Unknown,120,2013-01-24 02:48:00
8:48 PM,10.9,6.1,81,30.22,-9999.0,ESE,11.5,-,N/A,,Unknown,110,2013-01-24 03:48:00
9:48 PM,12.0,7.0,80,30.19,-9999.0,ESE,9.2,-,N/A,,Unknown,110,2013-01-24 04:48:00
10:48 PM,14.0,9.0,80,30.13,-9999.0,ESE,8.1,-,N/A,,Unknown,110,2013-01-24 05:48:00
11:48 PM,16.0,10.0,77,30.09,-9999.0,ESE,12.7,-,N/A,,Unknown,120,2013-01-24 06:48:00